[[{"header":{"parameterUnit":"m.s-1","parameterCategory":1,"la1":30.2991,"la2":30.254,"lo1":-89.0895,"lo2":-89.0444,"dy":0.0017,"dx":0.0017,"nx":28,"ny":28,"refTime":"2024-03-30T09:00:00:Z","depth":0,"parameterNumber":2,"parameterNumberName":"U-component_of_WINDS"},"data":[0,0,0,0,0,0,0,0,0,0,0,0,0,0,0,0,0,0,0,0,0,0,0,0,0,0,0,0,0,0,0,0,0,0,0,0,0,0,0,0,0,0,0,0,0,0,0,0,0,0,0,0,0,0,0,0,0,0,-3.8853,-3.8853,0,-3.8912,-3.8913,-3.8913,-3.8905,-3.8904,-3.8903,-3.8903,-3.8961,-3.8963,-3.8966,0,0,0,0,0,0,0,0,0,0,0,0,0,-3.8732,-3.8734,-3.8853,-3.8854,-3.8854,-3.8912,-3.8913,-3.8913,-3.8906,-3.8904,-3.8903,-3.8902,-3.896,-3.8963,-3.8966,0,0,0,0,0,0,0,0,0,0,0,0,0,-3.8787,-3.8735,-3.8853,-3.8857,-3.8858,-3.8912,-3.8913,-3.8914,-3.8906,-3.8904,-3.8903,-3.8902,-3.8959,-3.8963,-3.8966,-3.9018,0,0,-3.8978,-3.8979,0,0,0,0,0,0,0,0,-3.8784,-3.8791,-3.8856,-3.8857,-3.8858,-3.89,-3.8891,-3.8949,-3.8906,-3.8888,-3.8903,-3.8901,-3.8942,-3.8947,-3.8961,-3.9021,-3.9023,-3.8978,-3.898,-3.8982,-3.8983,0,0,0,0,0,0,0,-3.878,-3.8789,-3.8876,-3.8857,-3.8858,-3.8856,-3.8862,-3.8902,-3.8922,-3.8889,-3.8889,-3.8896,-3.8942,-3.8957,-3.8962,-3.9024,-3.8978,-3.8981,-3.8983,-3.8985,-3.9129,-3.9131,0,0,0,0,0,0,-3.8775,-3.8786,-3.8874,-3.8878,-3.8817,-3.8859,-3.8866,-3.8888,-3.8922,-3.8925,-3.8897,-3.8895,-3.8952,-3.8958,-3.8964,-3.9026,-3.8982,-3.8985,-3.8987,-3.9128,-3.913,-3.9131,0,0,0,0,0,0,-3.8773,-3.8783,-3.8872,-3.8832,-3.8843,-3.8863,-3.8887,-3.889,-3.8905,-3.8928,-3.8931,-3.8909,-3.8951,-3.8959,-3.9005,-3.9028,-3.8987,-3.899,-3.9126,-3.9128,-3.913,-3.9151,0,0,0,0,0,0,-3.8769,-3.8782,-3.8802,-3.8832,-3.8845,-3.8912,-3.8889,-3.8892,-3.8912,-3.891,-3.894,-3.8943,-3.895,-3.8999,-3.9008,-3.9032,-3.8993,-3.9124,-3.9127,-3.913,-3.9148,-3.9153,-3.9158,0,0,0,0,0,-3.8765,-3.8805,-3.8803,-3.8814,-3.8871,-3.8913,-3.892,-3.8928,-3.8914,-3.8934,-3.8948,-3.8942,-3.9025,-3.9004,-3.9014,-3.9039,-3.9122,-3.9126,-3.9129,-3.9146,-3.9152,-3.9158,0,0,0,0,0,0,-3.8776,-3.8809,-3.8807,-3.8859,-3.8883,-3.8912,-3.8937,-3.8935,-3.8964,-3.8961,-3.8969,-3.8976,-3.9022,-3.9036,-3.9012,-3.9091,-3.9071,-3.9077,-3.908,-3.9087,-3.9092,-3.9086,-3.8996,0,0,0,0,0,-3.8785,-3.8817,-3.8844,-3.8887,-3.89,-3.8916,-3.8935,-3.8939,-3.8965,-3.8975,-3.8993,-3.9017,-3.9049,-3.9069,-3.9099,-3.9151,-3.9157,-3.9173,-3.9179,-3.9183,-3.9187,-3.9215,-3.9222,-3.9143,-3.9143,-3.9143,0,0,-3.8803,-3.8825,-3.8844,-3.889,-3.8909,-3.8942,-3.8925,-3.896,-3.8984,-3.898,-3.9024,-3.9039,-3.9066,-3.9115,-3.9138,-3.9128,-3.921,-3.9187,-3.919,-3.9192,-3.9219,-3.9226,-3.9233,-3.9146,-3.9145,-3.9145,0,0,-3.8851,-3.8872,-3.8909,-3.893,-3.896,-3.8971,-3.898,-3.901,-3.9019,-3.9064,-3.9061,-3.909,-3.9144,-3.9164,-3.9181,-3.9239,-3.9234,-3.9249,-3.9275,-3.9302,-3.9308,-3.9313,-3.9333,-3.934,-3.9254,-3.9254,-3.9254,0,-3.8869,-3.8919,-3.8929,-3.8965,-3.8984,-3.8984,-3.9021,-3.904,-3.9079,-3.9092,-3.9081,-3.9149,-3.9168,-3.9221,-3.9236,-3.925,-3.926,-3.9244,-3.9307,-3.9312,-3.9317,-3.9336,-3.9343,-3.9255,-3.9255,-3.9255,-3.9255,0,-3.8938,-3.8973,-3.9,-3.9037,-3.9061,-3.9097,-3.9112,-3.9134,-3.9137,-3.915,-3.9195,-3.9218,-3.9253,-3.9266,-3.9269,-3.932,-3.9313,-3.9305,-3.9284,-3.9326,-3.9343,-3.9351,-3.9257,-3.9257,-3.9256,-3.9256,0,0,-3.8993,-3.9037,-3.9047,-3.9064,-3.9098,-3.9125,-3.9162,-3.9196,-3.9215,-3.9242,-3.9272,-3.9319,-3.9311,-3.9331,-3.9336,-3.936,-3.9403,-3.9349,-3.935,-3.9356,-3.9459,-3.9464,-3.9472,-3.9402,-3.9403,-3.9404,-3.9457,0,-3.9043,-3.9108,-3.9119,-3.9176,-3.9208,-3.9209,-3.9241,-3.9265,-3.9278,-3.9307,-3.9321,-3.9353,-3.9342,-3.9354,-3.9378,-3.9393,-3.9424,-3.939,-3.9428,-3.943,-3.9419,-3.9481,-3.9486,-3.9534,-3.9464,-3.9465,-3.9466,0,-3.911,-3.914,-3.92,-3.923,-3.9244,-3.9272,-3.9305,-3.9333,-3.9361,-3.9369,-3.9391,-3.9394,-3.9432,-3.9412,-3.9464,-3.9441,-3.9458,-3.9468,-3.947,-3.9471,-3.9448,-3.9483,-3.955,-3.9556,-3.9477,-3.9476,-3.9475,0,-3.9141,-3.9197,-3.924,-3.9255,-3.9292,-3.9311,-3.9328,-3.9354,-3.9375,-3.9404,-3.9417,-3.945,-3.9467,-3.9492,-3.9504,-3.9489,-3.9554,-3.9536,-3.9561,-3.956,-3.9572,-3.9571,-3.964,-3.9587,-3.9587,-3.9587,-3.9587,0,-3.9195,-3.9231,-3.9254,-3.928,-3.9321,-3.9334,-3.9374,-3.939,-3.9413,-3.9442,-3.9446,-3.9473,-3.9488,-3.9517,-3.9527,-3.9567,-3.9575,-3.9582,-3.9583,-3.958,-3.9579,-3.9589,-3.9585,-3.9589,-3.9588,-3.9588,-3.9588,0,-3.9235,-3.9253,-3.9299,-3.9331,-3.934,-3.9369,-3.9396,-3.9421,-3.9435,-3.9472,-3.9481,-3.9502,-3.9537,-3.9552,-3.9594,-3.9601,-3.9647,-3.9647,-3.9637,-3.9637,-3.9661,-3.9657,-3.9737,-3.9748,-3.969,-3.969,-3.9691,0,-3.9267,-3.9295,-3.9331,-3.9351,-3.9368,-3.94,-3.9421,-3.9435,-3.9457,-3.9491,-3.9512,-3.9548,-3.9576,-3.9631,-3.965,-3.9682,-3.9682,-3.9708,-3.9687,-3.9683,-3.968,-3.9677,-3.968,-3.9711,-3.9712,-3.9712,-3.9712,0,-3.9321,-3.9329,-3.9359,-3.9393,-3.9419,-3.9446,-3.9472,-3.9488,-3.9507,-3.9531,-3.9567,-3.9589,-3.9633,-3.9667,-3.9701,-3.9718,-3.9718,-3.972,-3.9727,-3.9722,-3.9715,-3.9717,-3.9645,-3.9717,-3.9716,-3.9716,-3.9716,-3.9716,-3.9357,-3.9382,-3.9411,-3.9445,-3.9467,-3.9492,-3.9517,-3.9535,-3.9565,-3.9602,-3.9609,-3.9647,-3.9675,-3.9721,-3.9738,-3.9768,-3.9761,-3.9772,-3.9774,-3.9776,-3.9777,-3.9712,-3.9774,-3.9774,-3.9774,-3.9774,-3.9774,0,-3.9409,-3.9429,-3.946,-3.9497,-3.9524,-3.9524,-3.9554,-3.9576,-3.961,-3.9636,-3.9664,-3.9706,-3.9739,-3.9762,-3.9796,-3.9815,-3.9816,-3.9823,-3.982,-3.9824,-3.9781,-3.9771,-3.9822,-3.9822,-3.9822,-3.9822,-3.9822,-3.9822,-3.944,-3.9481,-3.9493,-3.9545,-3.9564,-3.9602,-3.9619,-3.9642,-3.9663,-3.9709,-3.9737,-3.9752,-3.9777,-3.9813,-3.9843,-3.9849,-3.9861,-3.9868,-3.9873,-3.9832,-3.9827,-3.9822,-3.9812,-3.9871,-3.9871,-3.9913,-3.9913,-3.9914]},{"header":{"parameterUnit":"m.s-1","parameterCategory":1,"la1":30.2991,"la2":30.254,"lo1":-89.0895,"lo2":-89.0444,"dy":0.0017,"dx":0.0017,"nx":28,"ny":28,"refTime":"2024-03-30T09:00:00:Z","depth":0,"parameterNumber":3,"parameterNumberName":"V-component_of_WINDS"},"data":[0,0,0,0,0,0,0,0,0,0,0,0,0,0,0,0,0,0,0,0,0,0,0,0,0,0,0,0,0,0,0,0,0,0,0,0,0,0,0,0,0,0,0,0,0,0,0,0,0,0,0,0,0,0,0,0,0,0,2.7644,2.7644,0,2.77,2.7701,2.7701,2.7762,2.7763,2.7764,2.7764,2.782,2.7821,2.7821,0,0,0,0,0,0,0,0,0,0,0,0,0,2.759,2.7591,2.7644,2.7644,2.7645,2.77,2.7701,2.7701,2.7762,2.7763,2.7764,2.7765,2.782,2.7821,2.7821,0,0,0,0,0,0,0,0,0,0,0,0,0,2.7626,2.7591,2.7644,2.7682,2.7686,2.77,2.7701,2.7702,2.7761,2.7763,2.7764,2.7765,2.782,2.7821,2.7822,2.7802,0,0,2.7825,2.7825,0,0,0,0,0,0,0,0,2.7624,2.7628,2.7675,2.7679,2.7684,2.7725,2.7702,2.7735,2.7761,2.7733,2.7764,2.7766,2.7787,2.7791,2.7799,2.7804,2.7807,2.7825,2.7825,2.7826,2.7826,0,0,0,0,0,0,0,2.7622,2.7626,2.7666,2.7676,2.7681,2.7697,2.7703,2.7709,2.7752,2.7735,2.774,2.7746,2.779,2.7798,2.78,2.7808,2.7825,2.7826,2.7826,2.7827,2.7805,2.7804,0,0,0,0,0,0,2.7613,2.7624,2.7664,2.7668,2.7657,2.7697,2.7704,2.7711,2.7752,2.776,2.7745,2.7748,2.7795,2.7799,2.7803,2.7786,2.7826,2.7827,2.7827,2.7807,2.7805,2.7804,0,0,0,0,0,0,2.7612,2.7616,2.7662,2.7647,2.7654,2.7696,2.7703,2.7711,2.7719,2.7759,2.7767,2.7744,2.7796,2.7801,2.7803,2.7789,2.7827,2.7828,2.7808,2.7806,2.7805,2.775,0,0,0,0,0,0,2.761,2.7616,2.7608,2.7646,2.7655,2.766,2.7702,2.7711,2.7721,2.7726,2.7761,2.7768,2.7798,2.7801,2.7804,2.7791,2.7829,2.781,2.7807,2.7805,2.7753,2.7747,2.7741,0,0,0,0,0,2.7608,2.7589,2.7607,2.7611,2.7646,2.7659,2.7664,2.7699,2.7719,2.7713,2.7739,2.7767,2.779,2.7801,2.7804,2.7791,2.7811,2.7808,2.7805,2.7756,2.7748,2.7741,0,0,0,0,0,0,2.7545,2.7594,2.7615,2.7607,2.7629,2.767,2.7662,2.7689,2.7704,2.7709,2.7751,2.7758,2.7756,2.7774,2.7785,2.7777,2.7804,2.7802,2.7766,2.7758,2.7752,2.7749,2.783,0,0,0,0,0,2.7531,2.7538,2.758,2.7569,2.7579,2.7619,2.7626,2.7652,2.7675,2.7684,2.7711,2.7733,2.7746,2.7753,2.7766,2.7756,2.7767,2.7749,2.7743,2.7738,2.7736,2.7736,2.773,2.7795,2.7795,2.7795,0,0,2.75,2.7528,2.7529,2.7558,2.7577,2.7585,2.7626,2.7631,2.7638,2.7685,2.769,2.771,2.7737,2.7735,2.7734,2.7749,2.772,2.7734,2.773,2.7731,2.7733,2.7727,2.7721,2.7794,2.7794,2.7794,0,0,2.745,2.747,2.7466,2.7485,2.7516,2.7543,2.7542,2.7579,2.7596,2.7601,2.7638,2.7647,2.7666,2.7686,2.7698,2.766,2.7687,2.7663,2.7631,2.763,2.7625,2.7621,2.7611,2.7606,2.766,2.766,2.766,0,2.7408,2.7421,2.7459,2.7464,2.7477,2.7522,2.7519,2.7536,2.7569,2.7577,2.7593,2.7623,2.7644,2.7648,2.7639,2.7647,2.7649,2.7659,2.7623,2.7619,2.7616,2.7606,2.7602,2.7657,2.7658,2.7658,2.7658,0,2.737,2.7378,2.7371,2.7404,2.7416,2.7416,2.7457,2.7464,2.7489,2.7515,2.7522,2.755,2.7572,2.7575,2.7598,2.7584,2.7593,2.7615,2.7644,2.7606,2.7598,2.7594,2.7653,2.7654,2.7655,2.7656,0,0,2.7279,2.7337,2.7334,2.7351,2.739,2.7398,2.7401,2.7425,2.7432,2.7453,2.7459,2.7477,2.75,2.7514,2.7541,2.754,2.7513,2.7564,2.7565,2.7556,2.7503,2.7487,2.7482,2.7531,2.7531,2.753,2.7502,0,2.7237,2.7247,2.7285,2.7284,2.7295,2.734,2.7344,2.7369,2.7394,2.7407,2.7435,2.7448,2.7475,2.7485,2.7487,2.7516,2.7503,2.7518,2.7539,2.7539,2.7532,2.7477,2.746,2.7431,2.7498,2.7498,2.7497,0,2.7189,2.721,2.7212,2.7254,2.726,2.7263,2.729,2.7301,2.7331,2.735,2.7368,2.7399,2.7408,2.7434,2.7448,2.7457,2.7468,2.7484,2.7484,2.7489,2.7517,2.7482,2.7422,2.7419,2.7492,2.7493,2.7493,0,2.7127,2.7156,2.7162,2.7175,2.7223,2.7225,2.7246,2.7277,2.729,2.7314,2.7323,2.7346,2.7359,2.7377,2.7414,2.7429,2.7425,2.7454,2.7443,2.7442,2.744,2.744,2.7384,2.7444,2.7444,2.7444,2.7444,0,2.7077,2.7076,2.7135,2.7138,2.7141,2.7184,2.7185,2.721,2.7239,2.7249,2.7289,2.7298,2.7346,2.7361,2.739,2.7399,2.7404,2.7421,2.7429,2.7418,2.7417,2.7427,2.7431,2.7443,2.7443,2.7443,2.7444,0,2.7008,2.7046,2.7056,2.7103,2.7115,2.7115,2.7156,2.7162,2.7191,2.7204,2.7209,2.7254,2.7275,2.7314,2.7344,2.7364,2.7368,2.738,2.7358,2.7363,2.7351,2.7353,2.7301,2.7297,2.7357,2.7357,2.7356,0,2.6974,2.6976,2.7024,2.7034,2.7054,2.707,2.7084,2.7128,2.7142,2.7179,2.7181,2.7205,2.7227,2.7257,2.7293,2.7318,2.7333,2.7313,2.7336,2.7327,2.7336,2.7336,2.7338,2.7308,2.7307,2.7306,2.7305,0,2.6912,2.6932,2.6951,2.6979,2.6996,2.7019,2.7044,2.7051,2.7101,2.7114,2.7137,2.7153,2.7187,2.7211,2.7241,2.7263,2.7294,2.7298,2.7297,2.7287,2.7276,2.7285,2.7346,2.7299,2.73,2.73,2.73,2.7301,2.6861,2.6867,2.6903,2.6924,2.6949,2.6972,2.6982,2.7013,2.7033,2.7064,2.7089,2.711,2.7144,2.7189,2.721,2.7228,2.7242,2.724,2.724,2.7239,2.7236,2.7272,2.7233,2.7233,2.7234,2.7234,2.7234,0,2.6804,2.683,2.685,2.6886,2.6903,2.6931,2.6962,2.6975,2.6994,2.7023,2.7045,2.7073,2.7097,2.7136,2.7165,2.7172,2.7187,2.7178,2.7179,2.7184,2.7221,2.722,2.7166,2.7166,2.7166,2.7166,2.7166,2.7166,2.6776,2.6787,2.6812,2.6838,2.6864,2.6886,2.6902,2.6925,2.695,2.6979,2.7,2.7026,2.7061,2.7093,2.7117,2.7129,2.7138,2.7125,2.7141,2.7175,2.7181,2.7187,2.7187,2.7127,2.7127,2.7104,2.7103,2.7103]}]]